Time,TemperatureF,DewpointF,PressureIn,WindDirection,WindDirectionDegrees,WindSpeedMPH,WindSpeedGustMPH,Humidity,HourlyPrecipIn,Conditions,Clouds,dailyrainin,SolarRadiationWatts/m^2,SoftwareType,DateUTC
2013-08-16 00:02:00,56.9,55.0,30.14,NW,313,0.0,1.0,92,0.00,,,0.00,0,weatherlink.com 1.10,2013-08-16 04:02:00,
2013-08-16 00:17:00,56.6,55.0,30.14,NW,313,0.0,0.0,93,0.00,,,0.00,0,weatherlink.com 1.10,2013-08-16 04:17:00,
2013-08-16 00:32:00,56.3,54.0,30.14,NW,313,0.0,0.0,93,0.00,,,0.00,0,weatherlink.com 1.10,2013-08-16 04:32:00,
2013-08-16 00:47:00,56.1,54.0,30.14,NW,313,0.0,0.0,93,0.00,,,0.00,0,weatherlink.com 1.10,2013-08-16 04:47:00,
2013-08-16 01:02:00,55.9,54.0,30.14,NW,313,0.0,0.0,93,0.00,,,0.00,0,weatherlink.com 1.10,2013-08-16 05:02:00,
2013-08-16 01:32:00,55.4,54.0,30.14,NW,313,0.0,0.0,93,0.00,,,0.00,0,weatherlink.com 1.10,2013-08-16 05:32:00,
2013-08-16 01:47:00,55.1,54.0,30.14,NW,313,0.0,0.0,94,0.00,,,0.00,0,weatherlink.com 1.10,2013-08-16 05:47:00,
2013-08-16 02:02:00,55.1,54.0,30.14,NW,313,0.0,0.0,94,0.00,,,0.00,0,weatherlink.com 1.10,2013-08-16 06:02:00,
2013-08-16 02:17:00,55.2,54.0,30.14,NW,313,0.0,0.0,94,0.00,,,0.00,0,weatherlink.com 1.10,2013-08-16 06:17:00,
2013-08-16 02:32:00,55.3,54.0,30.14,NW,313,0.0,0.0,94,0.00,,,0.00,0,weatherlink.com 1.10,2013-08-16 06:32:00,
2013-08-16 02:47:00,55.3,54.0,30.14,NW,313,0.0,0.0,94,0.00,,,0.00,0,weatherlink.com 1.10,2013-08-16 06:47:00,
2013-08-16 03:02:00,55.2,54.0,30.14,NW,313,0.0,0.0,94,0.00,,,0.00,0,weatherlink.com 1.10,2013-08-16 07:02:00,
2013-08-16 03:17:00,55.2,54.0,30.14,NW,313,0.0,0.0,94,0.00,,,0.00,0,weatherlink.com 1.10,2013-08-16 07:17:00,
2013-08-16 03:32:00,55.1,54.0,30.14,NW,313,0.0,0.0,94,0.00,,,0.00,0,weatherlink.com 1.10,2013-08-16 07:32:00,
2013-08-16 03:47:00,55.1,54.0,30.14,NW,313,0.0,0.0,94,0.00,,,0.00,0,weatherlink.com 1.10,2013-08-16 07:47:00,
2013-08-16 04:02:00,55.1,54.0,30.14,NW,313,0.0,0.0,94,0.00,,,0.00,0,weatherlink.com 1.10,2013-08-16 08:02:00,
2013-08-16 04:17:00,55.1,53.0,30.14,NW,313,0.0,0.0,93,0.00,,,0.00,0,weatherlink.com 1.10,2013-08-16 08:17:00,
2013-08-16 04:32:00,54.9,53.0,30.14,NW,313,0.0,0.0,93,0.00,,,0.00,0,weatherlink.com 1.10,2013-08-16 08:32:00,
2013-08-16 04:47:00,54.8,53.0,30.15,NW,313,0.0,0.0,93,0.00,,,0.00,0,weatherlink.com 1.10,2013-08-16 08:47:00,
2013-08-16 05:02:00,54.7,53.0,30.15,NW,313,0.0,0.0,93,0.00,,,0.00,0,weatherlink.com 1.10,2013-08-16 09:02:00,
2013-08-16 05:17:00,54.7,53.0,30.15,NW,313,0.0,0.0,93,0.00,,,0.00,0,weatherlink.com 1.10,2013-08-16 09:17:00,
2013-08-16 05:32:00,54.6,53.0,30.15,NW,313,0.0,0.0,93,0.00,,,0.00,0,weatherlink.com 1.10,2013-08-16 09:32:00,
2013-08-16 05:47:00,54.5,53.0,30.16,NW,313,0.0,0.0,93,0.00,,,0.00,0,weatherlink.com 1.10,2013-08-16 09:47:00,
2013-08-16 06:02:00,54.5,53.0,30.16,NW,313,0.0,0.0,93,0.00,,,0.00,0,weatherlink.com 1.10,2013-08-16 10:02:00,
2013-08-16 06:17:00,54.5,53.0,30.17,NW,313,0.0,0.0,93,0.00,,,0.00,7,weatherlink.com 1.10,2013-08-16 10:17:00,
2013-08-16 06:32:00,54.6,53.0,30.17,NW,313,0.0,0.0,93,0.00,,,0.00,19,weatherlink.com 1.10,2013-08-16 10:32:00,
2013-08-16 06:47:00,54.8,53.0,30.17,NW,313,0.0,0.0,93,0.00,,,0.00,19,weatherlink.com 1.10,2013-08-16 10:47:00,
2013-08-16 07:02:00,55.1,53.0,30.17,NW,313,0.0,0.0,93,0.00,,,0.00,21,weatherlink.com 1.10,2013-08-16 11:02:00,
2013-08-16 07:17:00,55.3,53.0,30.17,NW,313,0.0,0.0,93,0.00,,,0.00,28,weatherlink.com 1.10,2013-08-16 11:17:00,
2013-08-16 07:32:00,55.4,54.0,30.17,NW,313,0.0,0.0,93,0.00,,,0.00,51,weatherlink.com 1.10,2013-08-16 11:32:00,
2013-08-16 07:47:00,55.7,54.0,30.18,NW,313,0.0,0.0,93,0.00,,,0.00,72,weatherlink.com 1.10,2013-08-16 11:47:00,
2013-08-16 08:02:00,56.1,54.0,30.18,NW,313,0.0,1.0,94,0.00,,,0.00,84,weatherlink.com 1.10,2013-08-16 12:02:00,
2013-08-16 08:17:00,56.5,55.0,30.18,NW,313,0.0,1.0,94,0.00,,,0.00,51,weatherlink.com 1.10,2013-08-16 12:17:00,
2013-08-16 08:32:00,56.9,55.0,30.19,NW,313,0.0,0.0,94,0.00,,,0.00,58,weatherlink.com 1.10,2013-08-16 12:32:00,
2013-08-16 08:47:00,57.5,56.0,30.18,NW,313,1.0,2.0,94,0.00,,,0.00,65,weatherlink.com 1.10,2013-08-16 12:47:00,
2013-08-16 09:03:00,58.7,57.0,30.18,NW,313,0.0,2.0,93,0.00,,,0.00,100,weatherlink.com 1.10,2013-08-16 13:03:00,
2013-08-16 09:18:00,60.8,58.0,30.18,NW,313,0.0,1.0,91,0.00,,,0.00,97,weatherlink.com 1.10,2013-08-16 13:18:00,
2013-08-16 09:33:00,61.8,59.0,30.18,NW,313,0.0,1.0,89,0.00,,,0.00,67,weatherlink.com 1.10,2013-08-16 13:33:00,
2013-08-16 09:48:00,63.0,59.0,30.18,NW,313,0.0,1.0,85,0.00,,,0.00,67,weatherlink.com 1.10,2013-08-16 13:48:00,
2013-08-16 10:18:00,64.6,59.0,30.18,NW,313,0.0,1.0,83,0.00,,,0.00,60,weatherlink.com 1.10,2013-08-16 14:18:00,
2013-08-16 10:33:00,65.6,58.0,30.18,NW,313,1.0,1.0,77,0.00,,,0.00,60,weatherlink.com 1.10,2013-08-16 14:33:00,
2013-08-16 10:48:00,67.7,58.0,30.18,NW,313,0.0,1.0,70,0.00,,,0.00,65,weatherlink.com 1.10,2013-08-16 14:48:00,
2013-08-16 11:03:00,68.9,57.0,30.18,NW,313,1.0,2.0,67,0.00,,,0.00,70,weatherlink.com 1.10,2013-08-16 15:03:00,
2013-08-16 11:18:00,69.8,59.0,30.18,South,177,0.0,2.0,68,0.00,,,0.00,803,weatherlink.com 1.10,2013-08-16 15:18:00,
2013-08-16 11:33:00,71.2,62.0,30.18,South,178,0.0,2.0,72,0.00,,,0.00,851,weatherlink.com 1.10,2013-08-16 15:33:00,
2013-08-16 11:48:00,71.5,59.0,30.17,South,178,1.0,1.0,66,0.00,,,0.00,870,weatherlink.com 1.10,2013-08-16 15:48:00,
2013-08-16 12:03:00,72.3,61.0,30.17,South,178,1.0,2.0,68,0.00,,,0.00,874,weatherlink.com 1.10,2013-08-16 16:03:00,
2013-08-16 12:18:00,73.1,61.0,30.17,South,178,0.0,2.0,65,0.00,,,0.00,879,weatherlink.com 1.10,2013-08-16 16:18:00,
2013-08-16 12:33:00,73.7,60.0,30.16,NW,304,0.0,3.0,62,0.00,,,0.00,898,weatherlink.com 1.10,2013-08-16 16:33:00,
2013-08-16 12:48:00,74.4,59.0,30.16,SW,229,0.0,2.0,60,0.00,,,0.00,925,weatherlink.com 1.10,2013-08-16 16:48:00,
2013-08-16 13:03:00,75.1,58.0,30.16,NNW,337,2.0,2.0,56,0.00,,,0.00,930,weatherlink.com 1.10,2013-08-16 17:03:00,
2013-08-16 13:18:00,76.0,62.0,30.16,WNW,298,0.0,2.0,62,0.00,,,0.00,977,weatherlink.com 1.10,2013-08-16 17:18:00,
2013-08-16 13:33:00,75.7,59.0,30.16,West,265,0.0,3.0,56,0.00,,,0.00,979,weatherlink.com 1.10,2013-08-16 17:33:00,
2013-08-16 13:48:00,76.6,58.0,30.16,NW,323,1.0,4.0,53,0.00,,,0.00,998,weatherlink.com 1.10,2013-08-16 17:48:00,
2013-08-16 14:04:00,76.5,59.0,30.16,North,351,0.0,3.0,55,0.00,,,0.00,953,weatherlink.com 1.10,2013-08-16 18:04:00,
2013-08-16 14:19:00,76.7,59.0,30.16,NNW,328,1.0,5.0,55,0.00,,,0.00,956,weatherlink.com 1.10,2013-08-16 18:19:00,
2013-08-16 14:34:00,76.2,58.0,30.15,WNW,284,1.0,2.0,54,0.00,,,0.00,323,weatherlink.com 1.10,2013-08-16 18:34:00,
2013-08-16 14:49:00,74.0,57.0,30.15,NNW,343,1.0,3.0,55,0.00,,,0.00,188,weatherlink.com 1.10,2013-08-16 18:49:00,
2013-08-16 15:04:00,73.7,59.0,30.15,WSW,240,0.0,1.0,61,0.00,,,0.00,942,weatherlink.com 1.10,2013-08-16 19:04:00,
2013-08-16 15:19:00,74.7,58.0,30.14,NW,325,0.0,3.0,56,0.00,,,0.00,281,weatherlink.com 1.10,2013-08-16 19:19:00,
2013-08-16 15:34:00,77.4,60.0,30.14,NNW,345,2.0,3.0,56,0.00,,,0.00,844,weatherlink.com 1.10,2013-08-16 19:34:00,
2013-08-16 15:49:00,77.5,58.0,30.14,SSE,167,1.0,3.0,52,0.00,,,0.00,243,weatherlink.com 1.10,2013-08-16 19:49:00,
2013-08-16 16:04:00,77.0,58.0,30.14,South,176,0.0,3.0,53,0.00,,,0.00,872,weatherlink.com 1.10,2013-08-16 20:04:00,
2013-08-16 16:19:00,75.2,58.0,30.14,SW,221,0.0,2.0,55,0.00,,,0.00,221,weatherlink.com 1.10,2013-08-16 20:19:00,
2013-08-16 16:34:00,73.7,59.0,30.14,SW,221,0.0,1.0,61,0.00,,,0.00,139,weatherlink.com 1.10,2013-08-16 20:34:00,
2013-08-16 16:49:00,73.0,60.0,30.14,SW,221,0.0,1.0,64,0.00,,,0.00,114,weatherlink.com 1.10,2013-08-16 20:49:00,
2013-08-16 17:04:00,73.4,60.0,30.14,SW,221,0.0,1.0,64,0.00,,,0.00,206,weatherlink.com 1.10,2013-08-16 21:04:00,
2013-08-16 17:19:00,72.9,61.0,30.14,SW,221,1.0,1.0,67,0.00,,,0.00,77,weatherlink.com 1.10,2013-08-16 21:19:00,
2013-08-16 17:34:00,71.4,59.0,30.14,SW,221,0.0,1.0,66,0.00,,,0.00,60,weatherlink.com 1.10,2013-08-16 21:34:00,
2013-08-16 17:49:00,71.5,61.0,30.15,SW,221,0.0,1.0,69,0.00,,,0.00,54,weatherlink.com 1.10,2013-08-16 21:49:00,
2013-08-16 18:04:00,71.9,60.0,30.14,SW,221,0.0,1.0,67,0.00,,,0.00,127,weatherlink.com 1.10,2013-08-16 22:04:00,
2013-08-16 18:19:00,72.2,61.0,30.15,SW,221,1.0,1.0,68,0.00,,,0.00,81,weatherlink.com 1.10,2013-08-16 22:19:00,
2013-08-16 18:34:00,71.3,60.0,30.15,SW,221,0.0,1.0,68,0.00,,,0.00,32,weatherlink.com 1.10,2013-08-16 22:34:00,
2013-08-16 18:49:00,71.0,60.0,30.15,SW,221,0.0,1.0,69,0.00,,,0.00,100,weatherlink.com 1.10,2013-08-16 22:49:00,
2013-08-16 19:19:00,70.1,61.0,30.16,SW,221,0.0,0.0,74,0.00,,,0.00,28,weatherlink.com 1.10,2013-08-16 23:19:00,
2013-08-16 19:34:00,69.3,62.0,30.16,SW,221,0.0,0.0,77,0.00,,,0.00,12,weatherlink.com 1.10,2013-08-16 23:34:00,
2013-08-16 19:49:00,68.7,62.0,30.16,SW,221,0.0,0.0,80,0.00,,,0.00,0,weatherlink.com 1.10,2013-08-16 23:49:00,
2013-08-16 20:04:00,67.8,63.0,30.17,SW,221,0.0,0.0,85,0.00,,,0.00,0,weatherlink.com 1.10,2013-08-17 00:04:00,
2013-08-16 20:19:00,66.7,63.0,30.17,SW,221,0.0,0.0,87,0.00,,,0.00,0,weatherlink.com 1.10,2013-08-17 00:19:00,
2013-08-16 20:34:00,65.9,62.0,30.17,SW,221,0.0,0.0,87,0.00,,,0.00,0,weatherlink.com 1.10,2013-08-17 00:34:00,
2013-08-16 20:49:00,65.1,62.0,30.18,SW,221,0.0,0.0,89,0.00,,,0.00,0,weatherlink.com 1.10,2013-08-17 00:49:00,
2013-08-16 21:04:00,64.9,62.0,30.18,SW,221,0.0,2.0,90,0.00,,,0.00,0,weatherlink.com 1.10,2013-08-17 01:04:00,
2013-08-16 21:19:00,64.8,61.0,30.19,West,270,1.0,2.0,88,0.00,,,0.00,0,weatherlink.com 1.10,2013-08-17 01:19:00,
2013-08-16 21:34:00,64.3,61.0,30.19,West,271,0.0,0.0,88,0.00,,,0.00,0,weatherlink.com 1.10,2013-08-17 01:34:00,
2013-08-16 21:49:00,63.9,60.0,30.19,West,271,0.0,1.0,88,0.00,,,0.00,0,weatherlink.com 1.10,2013-08-17 01:49:00,
2013-08-16 22:04:00,63.3,60.0,30.19,West,271,0.0,1.0,90,0.00,,,0.00,0,weatherlink.com 1.10,2013-08-17 02:04:00,
2013-08-16 22:19:00,63.4,60.0,30.19,SSE,159,0.0,3.0,89,0.00,,,0.00,0,weatherlink.com 1.10,2013-08-17 02:19:00,
2013-08-16 22:34:00,63.4,60.0,30.20,SSE,159,0.0,1.0,88,0.00,,,0.00,0,weatherlink.com 1.10,2013-08-17 02:34:00,
2013-08-16 22:49:00,62.9,59.0,30.20,SSE,159,0.0,2.0,88,0.00,,,0.00,0,weatherlink.com 1.10,2013-08-17 02:49:00,
2013-08-16 23:04:00,62.4,59.0,30.20,South,172,0.0,1.0,89,0.00,,,0.00,0,weatherlink.com 1.10,2013-08-17 03:04:00,
2013-08-16 23:19:00,62.2,59.0,30.20,South,172,0.0,1.0,89,0.00,,,0.00,0,weatherlink.com 1.10,2013-08-17 03:19:00,
2013-08-16 23:34:00,61.7,59.0,30.21,South,172,0.0,0.0,90,0.00,,,0.00,0,weatherlink.com 1.10,2013-08-17 03:34:00,
2013-08-16 23:49:00,61.2,58.0,30.21,South,172,0.0,1.0,90,0.00,,,0.00,0,weatherlink.com 1.10,2013-08-17 03:49:00,